METEOR 2-5 DEB, 45513

Orbit data source: Space-Track

METEOR 2-5 DEB, 45513 is space debris in LEO originally from a launch on Wed, 31 Oct 1979 UTC launched from the Plesetsk Missile And Space Complex (PKMTR). Debris objects in space refer to the collection of defunct objects orbiting the Earth. Examples of debris include non-operational satellites, rocket bodies, and fragments generated from explosions, collisions, or faulty payload assembly.

Loading next visibility...
Identifier
45513, 1979-095CV
Orbit
LEO
Country
Flag of CISCIS
Related business
Manufacturer
Unknown
Mission
Spacecraft
Bus & Motor
Unknown
Mass
Unknown
Launch date (UTC)
1979-10-31 (46 years ago)
Launch vehicle
Unknown
Launch site
Plesetsk Missile And Space Complex (PKMTR)
Object type
Payload
Rocket body
Debris
Shape & HBR
Unknown shape, 0.1 m
Radar Cross Section
Small (<0.1 m²)

Expand to show TLE details & history
Last TLE update: 3 weeks ago

TLE from 3 weeks ago
0 METEOR 2-5 DEB
1 45513U 79095CV  25272.69458667  .00018291  00000-0  63444-2 0  9991
2 45513  81.1986  57.8253 0007420 119.0350 241.1579 14.35476861627127
Epoch: 2025-09-29T16:40Z
TLE epoch observation values (Epoch: 2025-09-29T16:40:12.288Z)
Latitude
-0.00001°
Longitude
159.07948°
Altitude
778.978 km
Speed
7.463 km/s
True Right ascension
03h 51m 18s
True Declination
0° 00' 00"
Sunlit
Object was in full shadow at epoch
Visualization orbit readout
Latitude
Unknown
Longitude
Unknown
Altitude
Unknown
Speed
Unknown
Apparent Right ascension
Unknown
Apparent Declination
Unknown
Sunlit
N/A
Visualization observer readout
Local Sidereal Time
11:18:24
Azimuth
Unknown
Elevation
Unknown
Doppler factor
Unknown
Orbital elements
Apogee altitude
775.929 km
Perigee altitude
765.32 km
Semi-major axis
7,148.762 km
Eccentricity
0.00074
Inclination
81.1986°
RAAN
57.8253°
Arg. of periapsis
119.035°
True anomaly
241.08345°
Mean anomaly
241.1579°
Eccentric anomaly
241.12067°
Mean motion
3.59085 °/min
Orbital period
100.25 mins
BSTAR
0.0063444
Loading maneuver chart data...
Computing Atmospheric mass density...

Documentation

Showing up to 5 results
|